WS6A-13 Weather Reports


time (UTC)temp
C
wind
direction
speed
KPH
gust
KPH
rain 1hr
cm
rain 24hr
cm
rain mn
cm
humidity
%
barometer
mb
20260903224504 31 49 0.0 0.0 0.00 0.00 0.00 73 1012.2
20260903223004 31 49 0.0 1.6 0.00 0.00 0.00 70 1012.1
20260903221503 31 92 0.0 0.0 0.00 0.00 0.00 70 1012.0
20260903214504 32 146 0.0 0.0 0.00 0.00 0.00 67 1011.4
20260903213003 32 157 0.0 8.0 0.00 0.00 0.00 64 1011.3
20260903204504 32 77 0.0 8.0 0.00 0.00 0.00 63 1011.6
20260903203004 32 83 0.0 0.0 0.00 0.00 0.00 65 1011.9
20260903200022 33 82 0.0 3.2 0.00 0.00 0.00 61 1012.3
20260903194504 34 292 1.6 11.3 0.00 0.00 0.00 58 1012.5
20260903193004 34 49 0.0 8.0 0.00 0.00 0.00 61 1012.7
20260903191503 33 158 0.0 9.7 0.00 0.00 0.00 63 1012.9
20260903184504 33 318 1.6 8.0 0.00 0.00 0.00 61 1013.1
20260903183004 33 61 1.6 4.8 0.00 0.00 0.00 61 1013.2
20260903181504 33 28 1.6 8.0 0.00 0.00 0.00 61 1013.3
20260903173004 34 181 1.6 4.8 0.00 0.00 0.00 65 1013.7
20260903171503 33 5 0.0 4.8 0.00 0.00 0.00 64 1013.8
20260903170014 33 84 0.0 4.8 0.00 0.00 0.00 65 1013.9
20260903163004 33 160 0.0 4.8 0.00 0.00 0.00 68 1014.2
20260903161504 32 68 0.0 3.2 0.00 0.00 0.00 66 1014.4
20260903154505 31 89 0.0 4.8 0.00 0.00 0.00 71 1014.4
20260903153004 31 142 0.0 4.8 0.00 0.00 0.00 73 1014.4
20260903150008 30 127 0.0 0.0 0.00 0.00 0.00 74 1014.3
20260903144504 30 70 0.0 0.0 0.00 0.00 0.00 76 1014.3
20260903143004 28 152 0.0 0.0 0.00 0.00 0.00 77 1014.3
20260903134504 26 249 0.0 1.6 0.00 0.00 0.00 84 1014.4
20260903133004 25 249 0.0 0.0 0.00 0.00 0.00 89 1014.6
20260903131504 25 249 0.0 0.0 0.00 0.00 0.00 92 1014.7
20260903130004 24 249 0.0 0.0 0.00 0.00 0.00 93 1014.8
20260903123004 23 249 0.0 0.0 0.00 0.00 0.00 94 1014.9
20260903121504 23 249 0.0 0.0 0.00 0.00 0.00 93 1015.0
20260903120004 22 249 0.0 0.0 0.00 0.00 0.00 93 1014.9
20260903114504 22 249 0.0 0.0 0.00 0.00 0.00 93 1014.9
20260903113004 22 249 0.0 0.0 0.00 0.00 0.00 92 1014.6
20260903110004 23 249 0.0 0.0 0.00 0.00 0.00 92 1014.4
20260903103004 23 249 0.0 0.0 0.00 0.00 0.00 91 1014.1
20260903101503 23 249 0.0 0.0 0.00 0.00 0.00 92 1014.1
20260903100004 23 249 0.0 0.0 0.00 0.00 0.00 91 1014.0
20260903094504 23 249 0.0 0.0 0.00 0.00 0.00 92 1014.0
20260903093004 23 249 0.0 0.0 0.00 0.00 0.00 91 1014.0
20260903091504 23 249 0.0 0.0 0.00 0.00 0.00 91 1013.9
20260903084504 23 249 0.0 0.0 0.00 0.00 0.00 91 1013.8
20260903083003 23 249 0.0 0.0 0.00 0.00 0.00 91 1013.8
20260903081504 23 249 0.0 0.0 0.00 0.00 0.00 91 1013.8
20260903074504 24 249 0.0 0.0 0.00 0.00 0.00 90 1013.8
20260903073004 24 249 0.0 0.0 0.00 0.00 0.00 91 1013.8
20260903071503 24 249 0.0 0.0 0.00 0.00 0.00 91 1013.7
20260903061504 23 249 0.0 0.0 0.00 0.00 0.00 91 1013.8
20260903060003 23 249 0.0 0.0 0.00 0.00 0.00 90 1013.8
20260903054504 23 249 0.0 0.0 0.00 0.00 0.00 90 1013.7
20260903053004 24 249 0.0 0.0 0.00 0.00 0.00 90 1013.7
20260903051504 24 249 0.0 0.0 0.00 0.00 0.00 89 1013.6
20260903050004 24 249 0.0 0.0 0.00 0.00 0.00 89 1013.5
20260903044504 24 249 0.0 0.0 0.00 0.00 0.00 89 1013.4
20260903041504 24 249 0.0 0.0 0.00 0.00 0.00 88 1013.4
20260903040003 25 249 0.0 0.0 0.00 0.00 0.00 88 1013.3
20260903034504 25 249 0.0 0.0 0.00 0.00 0.00 88 1013.4
20260903033004 25 249 0.0 0.0 0.00 0.00 0.00 88 1013.5
20260903030004 25 249 0.0 0.0 0.00 0.00 0.00 87 1013.8
20260903024504 25 249 0.0 0.0 0.00 0.00 0.00 87 1013.8
20260903023004 25 249 0.0 0.0 0.00 0.00 0.00 87 1013.9
20260903021504 25 249 0.0 0.0 0.00 0.00 0.00 86 1013.9
20260903014504 26 249 0.0 0.0 0.00 0.00 0.00 85 1013.8
20260903013004 26 249 0.0 0.0 0.00 0.00 0.00 84 1013.7
20260903010004 26 249 0.0 0.0 0.00 0.00 0.00 83 1013.5
20260903004504 27 249 0.0 0.0 0.00 0.00 0.00 82 1013.4
20260903003004 27 249 0.0 0.0 0.00 0.00 0.00 80 1013.2
20260903000004 28 249 0.0 0.0 0.00 0.00 0.00 78 1013.2
20260902234504 29 249 0.0 0.0 0.00 0.00 0.00 78 1013.1
20260902233004 30 249 0.0 0.0 0.00 0.00 0.00 77 1013.1
20260902231504 30 249 0.0 0.0 0.00 0.00 0.00 74 1013.1
20260902230004 31 249 0.0 0.0 0.00 0.00 0.00 74 1013.2